Location: Newark
(30.1000°N, 109.4667°E)
Time: 01:00:40
(UTC+00:00)

Vanguard 2 Rocket - Pass Details

Date: 18 February 2020
Orbit: 554 x 3326 km, 32.9° (Epoch: 31 March)

Event Time Altitude Azimuth Distance (km) Brightness Sun altitude
Rises 13:35:16 0° 247° (WSW) 7,100 12.1 -40.1°
Reaches altitude 10° 13:40:26 10° 247° (WSW) 5,839 11.5 -41.2°
Enters shadow 13:55:37 73° 230° (SW) 2,237 8.6 -44.4°
